Regional Weather Roundup
Issued by NWS

Home | Current Version | Previous Version | Text Only | Print | Product List | Glossary Off
Versions: 1 2 3 4 5 6 7 8 9 10 11 12 13 14 15 16 17 18 19 20 21 22 23 24 25 26 27 28 29 30 31 32 33 34 35 36 37 38 39 40 41 42 43 44 45 46 47 48 49 50

000
ASUS45 KPSR 151700
RWRAZ

PRELIMINARY ARIZONA REGIONAL HOURLY WEATHER ROUNDUP
NATIONAL WEATHER SERVICE PHOENIX AZ
1000 AM MST MON SEP 15 2014

NOTE: FAIR INDICATES FEW OR NO CLOUDS BELOW 12,000 FEET WITH NO
SIGNIFICANT WEATHER AND/OR OBSTRUCTIONS TO VISIBILITY.

AZZ001>003-036-151800-
NORTHWEST ARIZONA

CITY           SKY/WX    TMP DP  RH WIND       PRES   REMARKS
KINGMAN        SUNNY     87  51  28 CALM      30.06S
$$

AZZ004>008-015-016-018-151800-
NORTH CENTRAL ARIZONA

CITY           SKY/WX    TMP DP  RH WIND       PRES   REMARKS
GRAND CANYON   SUNNY     75  50  41 VRB3      30.30F
PRESCOTT       SUNNY     78  55  44 CALM      30.19S
FLAGSTAFF      SUNNY     73  49  42 E7        30.33R
PAYSON         SUNNY     77  55  47 VRB6      30.22F
PAGE           SUNNY     80  42  25 VRB3      30.15S
$$

AZZ009>014-017-151800-
NORTHEAST ARIZONA

CITY           SKY/WX    TMP DP  RH WIND       PRES   REMARKS
WINSLOW        NOT AVBL
SAINT JOHNS    SUNNY     75  52  44 VRB5      30.25F
WINDOW ROCK    PTSUNNY   76  47  35 VRB6      30.32F
SHOW LOW       SUNNY     72  50  46 NE9       30.31F
$$

AZZ023-151800-
GREATER PHOENIX AREA

CITY           SKY/WX    TMP DP  RH WIND       PRES   REMARKS
PHOENIX        MOSUNNY   95  58  28 NE12      29.88S
GLENDALE       SUNNY     93  61  33 NE5       29.90S
DEER VALLEY    SUNNY     93  57  29 E8        29.90S
SCOTTSDALE     SUNNY     94  58  29 CALM      29.92S
MESA-FALCON    SUNNY     91  57  31 NE9       29.90S
MESA-GATEWAY   SUNNY     95  59  30 E10       29.92S
CHANDLER       SUNNY     93  63  36 E12       29.90S
$$

AZZ027-028-151800-
SOUTHWEST MARICOPA COUNTY AND PINAL COUNTY

CITY           SKY/WX    TMP DP  RH WIND       PRES   REMARKS
CASA GRANDE    SUNNY     93  59  31 E12       29.91S
GILA BEND      SUNNY     99  55  23 E14       29.85S
$$

AZZ503-504-507>509-151800-
SOUTHEAST ARIZONA

CITY           SKY/WX    TMP DP  RH WIND       PRES   REMARKS
TUCSON         SUNNY     90  57  32 E14       30.00S
RYAN FIELD       N/A     90  59  35 E14       29.98S
NOGALES        SUNNY     84  60  44 S6        30.08S
SIERRA VISTA   MOSUNNY   79  59  50 VRB3      30.16S
SAFFORD        SUNNY     80  57  45 S12       30.08F
$$

AZZ020-021-025-026-031-151800-
SOUTHWEST ARIZONA

CITY           SKY/WX    TMP DP  RH WIND       PRES   REMARKS
YUMA           SUNNY    102  55  20 E10       29.77S HX 100
$$

CAZ031-033-041-043-047-048-061-151800-
SOUTHERN CALIFORNIA

CITY           SKY/WX    TMP DP  RH WIND       PRES   REMARKS
DOWNTOWN L.A.  SUNNY     85  65  51 CALM      29.80S
L.A. AIRPORT   MOSUNNY   81  66  60 W6        29.81F
SAN DIEGO      SUNNY     83  69  62 W3        29.81R
BURBANK        SUNNY     91  54  28 CALM      29.83S
ONTARIO        MOSUNNY   92  51  24 CALM      29.84S
RIVERSIDE      SUNNY     92  58  31 W3        29.83S
PALM SPRINGS   SUNNY    101  52  19 W3        29.81S
EL CENTRO NAS  SUNNY     98  61  29 VRB3      29.76S
IMPERIAL       SUNNY     98  61  29 SE3       29.76S
BLYTHE         SUNNY     99  58  25 NE8       29.81S
$$

NVZ020-UTZ003-151800-
SOUTHERN NEVADA-UTAH

CITY           SKY/WX    TMP DP  RH WIND       PRES   REMARKS
LAS VEGAS      NOT AVBL
SALT LAKE CITY MOSUNNY   77  41  27 S7        30.11S
$$

NMZ009-TXZ055-151800-
NEW MEXICO-WEST TEXAS

CITY           SKY/WX    TMP DP  RH WIND       PRES   REMARKS
ALBUQUERQUE    MOSUNNY   71  55  56 S7        30.27F
EL PASO        PTSUNNY   74  59  59 VRB5      30.19S
$$


........................KEY........................
SKY/WX - SKY CONDITION/WEATHER
TMP    - TEMPERATURE IN FAHRENHEIT
DP     - DEW POINT IN FAHRENHEIT
RH     - RELATIVE HUMIDITY IN PERCENT
WIND   - DIRECTION AND SPEED IN MILES PER HOUR (MPH)
VRB    - VARIABLE WIND DIRECTION
PRES   - MEAN SEA LEVEL PRESSURE IN INCHES OF MERCURY
         F - FALLING PRESSURE   R - RISING PRESSURE
         S - STEADY PRESSURE
VSB    - VISIBILITY IN MILES
HX     - HEAT INDEX IN FAHRENHEIT
WCI    - WIND CHILL INDEX IN FAHRENHEIT
TC     - TEMPERATURE IN CELSIUS WHICH IS ALSO KNOWN AS
         TEMPERATURE IN CENTIGRADE
AFB    - AIR FORCE BASE
         LUKE AFB IS LUKE AIR FORCE BASE
         DAVIS-MONTHAN IS DAVIS-MONTHAN AIR FORCE BASE
NAS    - NAVAL AIR STATION
         EL CENTRO NAS IS EL CENTRO NAVAL AIR STATION
N/A    - NOT AVAILABLE



USA.gov is the U.S. government's official web portal to all federal, state and local government web resources and services.